Location: Newark
(57.7279°N, 5.6916°W)
Time: 22:08:31
(UTC+00:00)

N. Korean satellite - Pass Details

Date: 12 December 2019
Orbit: 454 x 508 km, 97.2° (Epoch: 19 January)

Event Time Altitude Azimuth Distance (km) Brightness Sun altitude
Rises 07:13:25 0° 10° (N) 2,568 10.1 -12.1°
Reaches altitude 10° 07:15:36 10° 3° (N) 1,673 9.1 -11.9°
Maximum altitude 07:18:57 39° 294° (WNW) 737 7.0 -11.4°
Drops below altitude 10° 07:22:14 10° 225° (SW) 1,632 9.0 -11.1°
Sets 07:24:20 0° 217° (SW) 2,496 10.1 -10.8°
